map of WLG home
WLG - Airport
Location
City:  Wellington, Wellington (Te Whanga-nui-a-Tara), New Zealand
Name:Wellington International Airport
ICAO:NZWN
IATA:WLG

Details
Type:Airport (Aerodrome, Airfield)
Use:Public/Civil, International (customs port of entry)
Latitude:41°19'38"S (-41.327221)
Longitude:174°48'19"E (174.805278)
Elevation:41 ft (12 m)
Variation:22.62°E (WMM2015 magnetic declination)
0.06° annual change
Runways:1
Longest:6352 × 148 ft (1936 × 45 m), paved

Time
Time Zone:UTC+12 (DST+13)
Local Time:

Weather
METAR:NZWN 230300Z AUTO 27004KT 180V330 9999 FEW048/// 14/04 Q0991 BECMG 18010KT
TAF:NZWN 220512Z 2206/2306 35030G50KT 9999 -SHRA FEW020 BKN030
TEMPO 2206/2209 6000 SHRA
TEMPO 2209/2213 2000 +TSRA FEW020CB
BECMG 2210/2212 34015G25KT
BECMG 2302/2304 18015KT

Related Locations
Nearby:
Farthest:SLM: 12401 mi / 19958 km
Salamanca [Matacán], CL, ES

Find:

   beyond  
but within

Other Information
Maps:
NOTAMs:
Links:
Sources:

  
flag of New Zealand   

Sectional Chart

Flight Planning
at skyvector.com

Satellite Image

Google Maps Satellite view

 

Copyright © 2004-2018 Karl L. Swartz. All rights reserved.
The Great Circle Mapper name and logo are trademarks of the Great Circle Mapper.
All other trademarks mentioned herein belong to their respective owners.
Please see credits for attibutions and further copyright information.

  Follow gcmap on Facebook Follow gcmap on Twitter Follow gcmap on Google+ GCmap on LinkedIn

hCard Microformat

Geo Microformat